Regional Weather Roundup
Issued by NWS Sterling, VA

Home | Current Version | Previous Version | Text Only | Print | Product List | Glossary On
Versions: 1 2 3 4 5 6 7 8 9 10 11 12 13 14 15 16 17 18 19 20 21 22 23 24 25 26 27 28 29 30 31 32 33 34 35 36 37 38 39 40 41 42 43 44 45 46 47 48 49 50
000
ASUS41 KLWX 241111
RWRLWX

REGIONAL WEATHER ROUNDUP
NATIONAL WEATHER SERVICE BALTIMORE MD/WASHINGTON DC
700 AM EDT TUE OCT 24 2017

Note: "FAIR" indicates few or no clouds below 12,000 feet
with no significant weather and/or obstructions to visibility.
 TC=TEMPERATURE CELSIUS

 * =Non NWS site. Station does not report precipitation (e.g. rain,
    snow, etc.), thunder, or fog.

DCZ001-MDZ009-015-VAZ040>042-051-053>054-241200-
WASHINGTON METRO

CITY           SKY/WX    TMP DP  RH WIND       PRES   REMARKS
WASHINGTON NAT CLOUDY    63  60  90 SW12      29.78R
DULLES         CLOUDY    59  58  96 S7        29.77R
ANDREWS AFB    MOCLDY    60  58  92 SW10      29.77R
FT BELVOIR     CLOUDY    61  57  88 VRB3      29.77R
QUANTICO       CLOUDY    61  59  93 SW5       29.80R
COLLEGE PARK*  CLOUDY    62  57  86 SW7       29.77R
LEESBURG*      CLOUDY    55  55 100 SW5       29.78R
MANASSAS*      CLOUDY    58  56  93 SW7       29.78R
GAITHERSBURG*  CLOUDY    59  58  96 SW6       29.78R

$$

MDZ006>007-011-014-241200-
BALTIMORE METRO

CITY           SKY/WX    TMP DP  RH WIND       PRES   REMARKS
BWI AIRPORT    MOCLDY    63  63 100 SW7       29.75R
MD SCIENCE CTR   N/A     65  62  90 MISG      29.75R
MARTIN STATE   CLOUDY    72  70  94 SE23G32   29.74S
ANNAPOLIS      PTCLDY    70  67  90 S12G20    29.75R
FORT MEADE*    CLOUDY    61  61 100 SW7       29.78R

$$

MDZ012-015-019>023-241200-
MARYLAND EASTERN SHORE

CITY           SKY/WX    TMP DP  RH WIND       PRES   REMARKS
OCEAN CITY     CLOUDY    72  68  87 S10G22    29.83S
SALISBURY      CLOUDY    71  69  93 S16G26    29.78F
CAMBRIDGE*     MOCLDY    70  68  94 S15       29.77R FOG
EASTON*        LGT RAIN  72  66  83 S15       29.79S

$$

MDZ017>025-241200-
SOUTHERN MARYLAND

CITY           SKY/WX    TMP DP  RH WIND       PRES   REMARKS
PATUXENT RIVER CLOUDY    67  64  90 SW7       29.77R
ST INIGOES     CLOUDY    67  64  90 S10       29.77R
LEONARDTOWN*   NOT AVBL

$$

MDZ003>005-241200-
NORTH CENTRAL MARYLAND

CITY           SKY/WX    TMP DP  RH WIND       PRES   REMARKS
FREDERICK*     CLOUDY    61  61 100 S6        29.78R
HAGERSTOWN APT CLOUDY    61  60  97 VRB6      29.74R
WESTMINSTER*   MOCLDY    61  61 100 SW7       29.75R

$$

MDZ501>502-241200-
WESTERN MARYLAND

CITY           SKY/WX    TMP DP  RH WIND       PRES   REMARKS
OAKLAND*       NOT AVBL
CUMBERLAND*    MOCLDY    55  54  94 SE5       29.78F

$$

VAZ025>031-241200-
SHENANDOAH VALLEY

CITY           SKY/WX    TMP DP  RH WIND       PRES   REMARKS
WINCHESTER*    PTCLDY    54  52  94 SW6       29.75S
FRONT ROYAL*   CLEAR     54  54 100 S3        29.75S
LURAY*         CLEAR     54  54 100 SW3       29.76F
NEW MARKET*    CLEAR     49  48  96 CALM      29.76S
STAUNTON*      CLEAR     51  49  92 SW3       29.79S
WAYNESBORO*    PTCLDY    49  49  99 S3        29.79R

$$

WVZ021-048>050-054>055-241200-
EASTERN WEST VIRGINIA PANHANDLE

CITY           SKY/WX    TMP DP  RH WIND       PRES   REMARKS
MARTINSBURG    CLEAR     55  54  96 S5        29.74R
PETERSBURG*    CLOUDY    54  51  90 W5        29.74S

$$

VAZ036>039-050-241200-
CENTRAL FOOTHILLS

CITY           SKY/WX    TMP DP  RH WIND       PRES   REMARKS
CHARLOTTESVILL CLOUDY    57  56  96 S6        29.78R FOG
CULPEPER*      CLOUDY    58  55  92 SW6       29.78S
ORANGE*        CLOUDY    55  54  94 CALM      29.78R
GORDONSVILLE*  CLOUDY    56  56 100 SW6       29.78R
WARRENTON*     CLOUDY    58  55  87 SW6       29.77S

$$

VAZ055>057-241200-
NORTH AND CENTRAL PIEDMONT

CITY           SKY/WX    TMP DP  RH WIND       PRES   REMARKS
FREDERICKSBRG* MOCLDY    59  59 100 SW8       29.78R
STAFFORD*      CLOUDY    58  58 100 SW3       29.83R

$$

NCZ024-NYZ072-PAZ021-071-VAZ022-071-241200-
OTHER REGIONAL OBSERVATIONS

CITY           SKY/WX    TMP DP  RH WIND       PRES   REMARKS
NEW YORK CITY  CLOUDY    71  65  81 S8G26     29.86F
PHILADELPHIA   LGT RAIN  72  65  78 S24G38    29.79R
PITTSBURGH     DRIZZLE   52  50  93 SW6       29.69S
ROANOKE        CLEAR     55  50  83 W6        29.82R
RICHMOND       CLOUDY    61  60  97 SW10      29.80R
RALEIGH        MOCLDY    59  59 100 W5        29.84R FOG

$$

ANZ530>537-241200-
MARINE OBSERVATIONS

STATION/POSITION TIME  TEMP    WIND        PRES
                       AIR SEA DIR/SP/G
                 (UTC) (F)     (DEG/KT/KT) (MB)
THOMAS PT LIGHT  1100   68 68  210/ 21/ 24   N/A
BALT KEY BRIDGE  1048   65     250/ 12/ 15 1006.9R
COVE POINT       1048   68     220/ 15/ 22 1008.4R
LEWISETTA        1048   67 68  230/ 10/ 12 1008.3R
SOLOMONS ISLAND  1036   67 69  230/ 11/ 16 1007.7R
PINEY POINT      1030          240/  8/ 12   N/A

$$




USA.gov is the U.S. government's official web portal to all federal, state and local government web resources and services.